W3EX Weather Reports


time (UTC)temp
F
wind
direction
speed
knots
gust
knots
rain 1hr
in
rain 24hr
in
rain mn
in
humidity
%
barometer
mb
20260506164602 61 181 4.3 11.3 0.05 0.24 0.24 90 1004.3
20260506163002 61 173 4.3 10.4 0.11 0.24 0.24 91 1004.1
20260506161607 61 207 2.6 10.4 0.15 0.22 0.22 91 1004.5
20260506153102 61 209 2.6 8.7 0.11 0.13 0.13 88 1005.6
20260506151502 62 196 2.6 6.1 0.07 0.07 0.07 87 1005.7
20260506150108 62 187 2.6 7.0 0.05 0.05 0.05 87 1005.6
20260506144501 62 223 2.6 4.3 0.04 0.04 0.04 85 1005.3
20260506143105 63 207 1.7 6.1 0.02 0.02 0.02 81 1005.5
20260506141603 65 244 5.2 10.4 0.00 0.00 0.00 76 1005.6
20260506140005 66 265 0.9 7.0 0.00 0.00 0.00 74 1005.5
20260506134502 66 247 3.5 7.8 0.00 0.00 0.00 73 1005.0
20260506133104 65 240 0.9 7.8 0.00 0.00 0.00 75 1005.4
20260506131502 65 283 4.3 9.6 0.00 0.00 0.00 74 1005.4
20260506130143 66 262 2.6 8.7 0.00 0.00 0.00 73 1005.7
20260506124502 66 179 2.6 9.6 0.00 0.00 0.00 72 1005.6
20260506123103 65 227 2.6 8.7 0.00 0.00 0.00 73 1005.6
20260506121604 65 184 3.5 7.8 0.00 0.00 0.00 74 1005.4
20260506120002 65 184 4.3 8.7 0.00 0.00 0.00 74 1005.4
20260506114602 64 193 2.6 11.3 0.00 0.00 0.00 75 1005.3
20260506113002 64 211 6.1 10.4 0.00 0.00 0.00 75 1005.1
20260506111602 64 210 2.6 7.8 0.00 0.00 0.00 75 1005.4
20260506110006 64 232 4.3 8.7 0.00 0.00 0.00 75 1005.1
20260506104503 64 244 5.2 8.7 0.00 0.00 0.00 75 1005.1
20260506103102 64 167 4.3 10.4 0.00 0.00 0.00 75 1004.9
20260506101502 64 209 6.1 10.4 0.00 0.00 0.00 75 1004.9
20260506100104 65 183 4.3 9.6 0.00 0.00 0.00 74 1004.9
20260506094507 65 198 4.3 9.6 0.00 0.00 0.00 74 1005.0
20260506093106 65 244 4.3 8.7 0.00 0.00 0.00 73 1004.8
20260506091502 66 215 5.2 9.6 0.00 0.00 0.00 72 1004.9
20260506084507 66 235 5.2 9.6 0.00 0.00 0.00 70 1005.0
20260506083103 67 194 3.5 13.0 0.00 0.00 0.00 70 1005.1
20260506073106 66 175 3.5 8.7 0.00 0.00 0.00 69 1005.2
20260506071502 67 207 3.5 8.7 0.00 0.00 0.00 68 1005.3
20260506070104 67 182 4.3 9.6 0.00 0.00 0.00 67 1005.2
20260506061502 67 157 2.6 7.8 0.00 0.00 0.00 65 1005.7
20260506044603 67 186 0.9 7.8 0.00 0.00 0.00 62 1006.2
20260506043102 67 182 3.5 7.0 0.00 0.00 0.00 62 1006.3
20260506041502 68 198 2.6 7.0 0.00 0.00 0.00 62 1006.2
20260506034501 68 211 2.6 7.8 0.00 0.00 0.00 61 1006.2
20260506033113 68 194 4.3 7.8 0.00 0.00 0.00 60 1006.0
20260506031502 69 194 3.5 9.6 0.00 0.00 0.00 57 1006.0
20260506024502 71 180 3.5 7.8 0.00 0.00 0.00 53 1005.9
20260506023102 71 198 6.1 10.4 0.00 0.00 0.00 52 1006.0
20260506021502 72 180 3.5 10.4 0.00 0.00 0.00 51 1005.9
20260506020103 72 217 2.6 7.8 0.00 0.00 0.00 49 1006.0
20260506014504 73 172 5.2 8.7 0.00 0.00 0.00 48 1005.8
20260506013102 73 184 3.5 8.7 0.00 0.00 0.00 46 1005.7
20260506011502 74 209 3.5 10.4 0.00 0.00 0.00 46 1005.6
20260506010003 74 196 2.6 8.7 0.00 0.00 0.00 45 1005.4
20260506004604 74 180 3.5 11.3 0.00 0.00 0.00 46 1005.3
20260506003003 75 207 3.5 8.7 0.00 0.00 0.00 45 1005.1
20260506001619 76 233 3.5 7.8 0.00 0.00 0.00 40 1004.9
20260506000010 76 194 3.5 8.7 0.00 0.00 0.00 40 1004.9
20260505234604 77 178 3.5 9.6 0.00 0.00 0.00 40 1004.7
20260505233002 77 169 2.6 8.7 0.00 0.00 0.00 40 1004.6
20260505231603 78 206 1.7 9.6 0.00 0.00 0.00 39 1004.6
20260505230002 78 223 2.6 20.0 0.00 0.00 0.00 37 1004.6
20260505224603 79 213 3.5 10.4 0.00 0.00 0.00 37 1004.5
20260505223007 79 220 3.5 9.6 0.00 0.00 0.00 36 1004.5
20260505221602 80 228 5.2 13.0 0.00 0.00 0.00 35 1004.4
20260505220006 80 230 6.1 11.3 0.00 0.00 0.00 35 1004.3
20260505214609 80 261 2.6 8.7 0.00 0.00 0.00 35 1004.5
20260505213002 80 114 2.6 9.6 0.00 0.00 0.00 34 1004.3
20260505211624 81 188 5.2 12.2 0.00 0.00 0.00 33 1004.2
20260505210006 81 255 4.3 20.0 0.00 0.00 0.00 33 1004.3
20260505204602 80 355 5.2 17.4 0.00 0.00 0.00 32 1004.3
20260505203102 81 222 2.6 22.6 0.00 0.00 0.00 34 1004.4
20260505201502 82 297 4.3 11.3 0.00 0.00 0.00 33 1004.3
20260505194504 82 180 3.5 13.0 0.00 0.00 0.00 33 1004.7
20260505193102 81 247 5.2 14.8 0.00 0.00 0.00 31 1004.6
20260505191503 81 225 5.2 14.8 0.00 0.00 0.00 31 1004.8
20260505190119 81 243 3.5 16.5 0.00 0.00 0.00 31 1004.9
20260505184502 81 180 6.1 14.8 0.00 0.00 0.00 37 1005.0
20260505183102 81 210 6.1 15.6 0.00 0.00 0.00 33 1005.2
20260505181502 81 277 3.5 19.1 0.00 0.00 0.00 35 1005.4
20260505174504 81 240 4.3 15.6 0.00 0.00 0.00 36 1005.6
20260505173103 81 190 4.3 8.7 0.00 0.00 0.00 39 1005.7
20260505171506 80 44 1.7 13.0 0.00 0.00 0.00 40 1005.6
20260505170114 81 201 4.3 13.0 0.00 0.00 0.00 39 1005.9